sat.trackr.live / text

‹ back to catalog

STARLINK-34212

NORAD 64139 · 2025-111S

PAYLOAD ACTIVE UNKNOWN

§ Identity

Operator
Country
US
Launch date
2025-05-24
Launch site
AFETR
Launch vehicle
Mass (kg)
RCS (m²)

Purposes: comms

External: N2YO · Heavens-Above · Gunter

§ Orbital elements

Epoch: 2026-05-24T23:36:56.787840Z

Period
94.26 min
Inclination
43.0032°
Eccentricity
0.0001674
Mean motion
15.27617368 rev/d
Perigee alt
481.8 km
Apogee alt
484.1 km
Semi-major
6,861.1 km
B*
8.0536e-4
RAAN
6.8222°
Arg perigee
277.1448°
Mean anomaly
82.9214°
Rev number
5,713

§ Raw data

STARLINK-342121 64139U 25111S   26144.98399060  .00021991  00000+0  80536-3 0  99902 64139  43.0032   6.8222 0001674 277.1448  82.9214 15.27617368 57136

JSON: /api/v1/satellites/64139 · /tle

For live sub-satellite position, see the globe view (requires WebGL).

§ Visibility from observer

Set your observer location to see the next 7 days of passes ≥ 10°. The values pass through the URL so the page stays shareable.

No JS? Fill the form by hand. The geolocation button needs JavaScript.